User: anonymous   Login
Location: �clusier
(49.9361°N, 2.7869°E)
Time: 09:24:18
(UTC+00:00)
Language:

Cosmos 2322 - Orbit

View from above orbital plane
View from above orbital plane
View from above satellite
View from above satellite

Ground track
Ground track

The orbit data is extracted from the following two-line orbital elements,

1 23704U 95058A   21263.80625989  .00000102  00000-0  79760-4 0  9990
2 23704  70.9863  21.0023 0011483 257.7464 102.2372 14.13431097335585
Epoch (UTC): 20 September 2021 19:21:00
Eccentricity: 0.0011483
inclination: 70.9863°
perigee height: 839 km
apogee height: 856 km
right ascension of ascending node: 21.0023°
argument of perigee: 257.7464°
revolutions per day: 14.13431097
mean anomaly at epoch: 102.2372°
orbit number at epoch: 33558

The dashed part of the orbit path shows where the satellite is in the earth's shadow,  

DLR